{"data":{"norad_id":55825,"intl_designator":"2023-029AF","name":"ONEWEB-0665","alt_names":[],"object_type":"PAYLOAD","status":"ACTIVE","operator":null,"country":"UK","launch_date":"2023-03-09","launch_site_code":"AFETR","launch_vehicle":null,"mission":null,"orbit_class":"UNKNOWN","rcs_meters":null,"size_class":null,"mass_kg":null,"dimensions":null,"purposes":["comms"],"wikipedia_slug":null,"has_3d_model":false,"image_url":null,"decayed_at":null,"tle_current":{"epoch":"2026-09-20T00:01:43.338720Z","epoch_age_seconds":61318,"freshness":"FRESH","line1":"1 55825U 23029AF  26263.00119605  .00000211  00000+0  53414-3 0  9995","line2":"2 55825  87.8895 270.8067 0001968  84.8167 275.3188 13.14502962171860","mean_motion":13.14502962,"eccentricity":0.0001968,"inclination_deg":87.8895,"raan_deg":270.8067,"arg_perigee_deg":84.8167,"mean_anomaly_deg":275.3188,"bstar":0.00053414,"rev_number":17186,"period_min":109.54710956368,"perigee_km":1204.2972147651,"apogee_km":1207.2822483267,"semimajor_km":7583.9267315459,"source":"CELESTRAK","updated_at":"2026-09-20T09:00:44.765266Z"}}}